Total_Precipitation_Accumulation
0.00 0.02 0.10 0.13 0.11 0.18 0.19 0.05 0.01 0.00 0.00 0.00 0.00 0.00 0.00 0.00 0.01 0.05 0.00 0.00 0.00 0.00 0.00 0.01 0.01 0.00 0.00 0.00 0.00 0.00 0.00 0.00 0.00 0.00 0.00 0.01 0.00 0.00 0.00 0.01 0.01 0.01 0.01 0.01 0.01 0.01 0.01 0.00 0.00
0.00 0.01 0.06 0.08 0.16 0.38 0.24 0.05 0.01 0.00 0.00 0.00 0.00 0.00 0.00 0.00 0.00 0.00 0.00 0.00 0.00 0.00 0.00 0.00 0.01 0.00 0.00 0.00 0.00 0.00 0.00 0.00 0.00 0.01 0.01 0.01 0.01 0.01 0.01 0.01 0.01 0.01 0.01 0.01 0.01 0.00 0.00 0.00 0.00
0.00 0.00 0.03 0.05 0.13 0.28 0.18 0.04 0.01 0.00 0.00 0.00 0.00 0.00 0.00 0.00 0.00 0.00 0.00 0.00 0.00 0.00 0.00 0.00 0.00 0.00 0.00 0.00 0.00 0.01 0.01 0.01 0.01 0.01 0.01 0.01 0.01 0.01 0.01 0.01 0.01 0.01 0.01 0.01 0.00 0.00 0.00 0.00 0.01
0.00 0.00 0.01 0.02 0.07 0.14 0.11 0.06 0.03 0.01 0.01 0.00 0.00 0.00 0.00 0.00 0.00 0.00 0.00 0.00 0.00 0.00 0.00 0.00 0.00 0.00 0.00 0.00 0.00 0.01 0.01 0.01 0.01 0.01 0.01 0.01 0.01 0.01 0.01 0.01 0.01 0.01 0.01 0.00 0.01 0.00 0.00 0.00 0.01
0.00 0.00 0.00 0.01 0.04 0.12 0.13 0.10 0.06 0.03 0.01 0.00 0.00 0.00 0.01 0.00 0.00 0.00 0.00 0.00 0.00 0.00 0.00 0.00 0.00 0.00 0.00 0.00 0.01 0.01 0.01 0.01 0.01 0.01 0.01 0.01 0.01 0.01 0.01 0.01 0.01 0.01 0.01 0.01 0.01 0.01 0.01 0.01 0.01
0.00 0.00 0.00 0.01 0.03 0.07 0.10 0.08 0.06 0.04 0.01 0.01 0.01 0.01 0.01 0.00 0.00 0.00 0.00 0.00 0.00 0.00 0.00 0.00 0.01 0.00 0.00 0.00 0.00 0.01 0.01 0.01 0.01 0.01 0.01 0.01 0.01 0.01 0.02 0.03 0.02 0.01 0.02 0.02 0.01 0.01 0.02 0.02 0.02
0.00 0.00 0.00 0.00 0.01 0.03 0.06 0.06 0.05 0.04 0.03 0.02 0.01 0.01 0.02 0.03 0.00 0.00 0.00 0.00 0.00 0.00 0.00 0.00 0.00 0.00 0.00 0.00 0.00 0.01 0.01 0.01 0.01 0.01 0.01 0.01 0.01 0.02 0.04 0.05 0.05 0.04 0.03 0.04 0.03 0.01 0.01 0.02 0.03
0.00 0.00 0.00 0.00 0.01 0.01 0.02 0.03 0.03 0.03 0.02 0.02 0.01 0.02 0.06 0.05 0.01 0.00 0.00 0.00 0.00 0.00 0.00 0.00 0.01 0.00 0.00 0.00 0.00 0.00 0.01 0.01 0.01 0.01 0.01 0.01 0.01 0.03 0.04 0.05 0.07 0.10 0.10 0.10 0.08 0.05 0.04 0.04 0.04
0.00 0.00 0.00 0.00 0.00 0.00 0.01 0.02 0.02 0.01 0.01 0.01 0.01 0.03 0.04 0.02 0.00 0.00 0.00 0.00 0.01 0.01 0.01 0.01 0.01 0.01 0.01 0.01 0.01 0.02 0.02 0.02 0.02 0.02 0.02 0.02 0.02 0.03 0.10 0.14 0.18 0.20 0.22 0.21 0.17 0.13 0.13 0.13 0.08
0.00 0.00 0.00 0.00 0.00 0.00 0.00 0.01 0.01 0.01 0.02 0.03 0.05 0.05 0.03 0.01 0.00 0.00 0.00 0.00 0.01 0.01 0.01 0.01 0.01 0.02 0.02 0.01 0.02 0.03 0.03 0.05 0.04 0.06 0.10 0.13 0.18 0.15 0.09 0.20 0.36 0.41 0.48 0.44 0.41 0.42 0.33 0.22 0.18
0.00 0.00 0.00 0.00 0.00 0.00 0.00 0.00 0.00 0.00 0.02 0.08 0.14 0.15 0.08 0.02 0.00 0.00 0.00 0.00 0.00 0.01 0.01 0.01 0.02 0.03 0.03 0.03 0.03 0.03 0.04 0.12 0.11 0.11 0.19 0.31 0.31 0.21 0.16 0.19 0.35 0.47 0.51 0.41 0.60 0.73 0.49 0.47 0.62
0.00 0.00 0.00 0.00 0.00 0.00 0.00 0.00 0.00 0.00 0.01 0.02 0.04 0.10 0.13 0.07 0.02 0.01 0.01 0.01 0.01 0.02 0.02 0.03 0.02 0.04 0.05 0.06 0.06 0.06 0.07 0.12 0.14 0.22 0.26 0.35 0.38 0.31 0.27 0.30 0.30 0.38 0.45 0.60 0.73 0.85 0.80 0.84 0.83
0.00 0.00 0.00 0.00 0.00 0.00 0.00 0.00 0.00 0.00 0.00 0.00 0.01 0.01 0.04 0.04 0.04 0.03 0.05 0.07 0.04 0.05 0.06 0.08 0.07 0.10 0.15 0.19 0.20 0.16 0.16 0.19 0.21 0.29 0.33 0.39 0.49 0.45 0.45 0.44 0.42 0.37 0.48 0.69 0.87 0.85 0.94 1.06 1.03
0.00 0.00 0.00 0.00 0.00 0.00 0.00 0.00 0.00 0.00 0.00 0.00 0.00 0.01 0.01 0.01 0.04 0.08 0.12 0.16 0.15 0.17 0.25 0.30 0.31 0.37 0.43 0.44 0.43 0.38 0.35 0.38 0.37 0.42 0.44 0.50 0.60 0.68 0.68 0.60 0.61 0.52 0.57 0.69 0.87 0.94 1.18 1.15 1.15
0.00 0.00 0.00 0.00 0.00 0.00 0.00 0.00 0.01 0.01 0.00 0.00 0.00 0.01 0.01 0.02 0.04 0.07 0.11 0.16 0.25 0.38 0.52 0.66 0.79 0.89 0.89 0.82 0.71 0.65 0.65 0.68 0.68 0.72 0.77 0.86 0.89 0.94 0.93 0.81 0.75 0.83 0.92 0.96 1.01 1.08 1.23 1.17 1.08
0.00 0.00 0.00 0.00 0.00 0.00 0.00 0.01 0.01 0.02 0.01 0.01 0.02 0.02 0.03 0.04 0.07 0.10 0.16 0.25 0.38 0.53 0.71 1.01 1.35 1.46 1.41 1.31 1.17 1.07 1.03 1.01 1.01 1.02 1.10 1.17 1.18 1.17 1.12 0.91 0.86 1.15 1.20 1.19 1.25 1.26 1.30 1.38 1.36
0.00 0.00 0.00 0.02 0.02 0.01 0.00 0.01 0.02 0.02 0.02 0.02 0.05 0.06 0.06 0.06 0.11 0.20 0.37 0.55 0.67 0.85 1.24 1.75 1.94 2.01 2.05 1.86 1.68 1.57 1.49 1.38 1.32 1.38 1.32 1.36 1.42 1.33 1.32 1.06 1.02 1.32 1.43 1.38 1.30 1.46 1.64 1.59 1.59
0.00 0.00 0.01 0.03 0.02 0.02 0.02 0.01 0.02 0.03 0.05 0.06 0.06 0.09 0.12 0.15 0.25 0.39 0.57 0.75 0.93 1.31 1.81 2.21 2.46 2.62 2.61 2.56 2.35 2.01 1.77 1.56 1.53 1.49 1.37 1.29 1.25 1.35 1.52 1.23 1.22 1.46 1.46 1.39 1.49 1.63 1.76 1.61 1.63
0.01 0.01 0.02 0.02 0.01 0.01 0.02 0.02 0.01 0.02 0.04 0.09 0.12 0.14 0.20 0.36 0.50 0.57 0.74 0.93 1.17 1.56 1.91 2.39 2.69 2.76 2.75 2.76 2.49 2.11 1.75 1.58 1.46 1.36 1.29 1.29 1.33 1.46 1.72 1.48 1.46 1.51 1.37 1.31 1.51 1.62 1.53 1.38 1.73
0.01 0.02 0.04 0.05 0.02 0.01 0.01 0.03 0.03 0.03 0.07 0.11 0.18 0.28 0.40 0.56 0.71 0.84 1.03 1.16 1.22 1.40 1.77 2.11 2.17 1.99 1.87 1.86 1.84 1.72 1.65 1.51 1.38 1.34 1.38 1.36 1.40 1.47 1.57 1.56 1.47 1.45 1.39 1.23 1.25 1.44 1.31 1.03 1.41
0.01 0.01 0.03 0.04 0.02 0.01 0.05 0.14 0.13 0.10 0.14 0.21 0.34 0.54 0.69 0.78 0.91 1.02 1.11 1.17 1.17 1.21 1.37 1.51 1.39 1.27 1.25 1.34 1.45 1.50 1.61 1.54 1.53 1.60 1.64 1.51 1.53 1.53 1.60 1.49 1.35 1.30 1.29 1.13 1.06 1.19 1.22 1.01 1.08
0.04 0.01 0.01 0.01 0.02 0.05 0.10 0.29 0.40 0.29 0.29 0.34 0.48 0.61 0.68 0.74 0.80 0.85 0.86 0.96 0.98 0.97 1.05 1.20 1.18 1.13 1.21 1.44 1.54 1.58 1.72 1.84 1.99 2.19 2.13 1.97 1.80 1.68 1.60 1.42 1.25 1.09 1.07 1.01 0.95 1.06 1.12 1.11 0.90
0.02 0.01 0.00 0.01 0.02 0.08 0.13 0.23 0.41 0.48 0.44 0.45 0.52 0.63 0.67 0.72 0.74 0.71 0.75 0.85 0.91 0.83 0.87 1.06 1.19 1.31 1.51 1.70 1.79 1.88 1.96 2.04 2.04 2.06 1.98 1.87 1.78 1.65 1.49 1.35 1.22 1.11 1.02 0.94 0.91 0.92 0.93 0.94 0.84
0.01 0.01 0.03 0.04 0.07 0.23 0.24 0.22 0.42 0.53 0.50 0.44 0.39 0.43 0.52 0.54 0.53 0.54 0.63 0.88 1.10 1.07 1.00 1.05 1.22 1.41 1.58 1.67 1.74 1.77 1.74 1.70 1.61 1.50 1.39 1.32 1.28 1.23 1.17 1.09 0.98 0.93 0.92 0.90 0.86 0.83 0.82 0.83 0.83
0.02 0.05 0.22 0.38 0.44 0.48 0.28 0.20 0.36 0.41 0.48 0.45 0.51 0.55 0.41 0.35 0.42 0.40 0.38 0.45 0.52 0.59 0.62 0.64 0.69 0.88 1.02 1.11 1.15 1.17 1.17 1.09 1.00 0.92 0.84 0.78 0.74 0.69 0.67 0.68 0.69 0.70 0.71 0.71 0.73 0.71 0.70 0.75 0.78
0.03 0.03 0.12 0.19 0.21 0.23 0.19 0.29 0.36 0.38 0.35 0.38 0.44 0.38 0.24 0.19 0.19 0.18 0.16 0.17 0.30 0.45 0.56 0.60 0.56 0.55 0.55 0.60 0.65 0.62 0.64 0.61 0.58 0.62 0.57 0.53 0.52 0.50 0.48 0.50 0.53 0.55 0.59 0.60 0.63 0.63 0.62 0.63 0.65
0.03 0.03 0.03 0.04 0.05 0.09 0.16 0.38 0.35 0.31 0.35 0.35 0.25 0.16 0.12 0.10 0.07 0.07 0.07 0.08 0.16 0.30 0.39 0.41 0.43 0.46 0.49 0.52 0.50 0.43 0.39 0.39 0.39 0.42 0.43 0.45 0.49 0.44 0.44 0.48 0.53 0.56 0.59 0.60 0.59 0.59 0.60 0.68 0.72
0.04 0.03 0.02 0.03 0.05 0.05 0.09 0.35 0.50 0.39 0.38 0.29 0.20 0.16 0.09 0.05 0.03 0.03 0.03 0.04 0.07 0.14 0.24 0.32 0.37 0.41 0.46 0.50 0.48 0.41 0.35 0.30 0.30 0.33 0.39 0.43 0.42 0.43 0.46 0.48 0.54 0.57 0.56 0.54 0.53 0.54 0.57 0.66 0.75
0.04 0.04 0.03 0.03 0.03 0.06 0.10 0.24 0.27 0.28 0.25 0.22 0.16 0.09 0.04 0.02 0.01 0.02 0.07 0.12 0.18 0.28 0.37 0.43 0.45 0.42 0.43 0.45 0.44 0.41 0.36 0.33 0.33 0.34 0.36 0.39 0.39 0.41 0.44 0.48 0.50 0.51 0.52 0.51 0.53 0.54 0.60 0.67 0.72
0.04 0.03 0.03 0.03 0.03 0.03 0.08 0.20 0.12 0.11 0.10 0.08 0.05 0.03 0.02 0.01 0.02 0.06 0.13 0.20 0.25 0.33 0.42 0.47 0.52 0.54 0.56 0.60 0.65 0.71 0.69 0.62 0.53 0.41 0.38 0.41 0.47 0.48 0.48 0.51 0.52 0.51 0.53 0.60 0.66 0.65 0.70 0.74 0.76